Time,TemperatureF,DewpointF,PressureIn,WindDirection,WindDirectionDegrees,WindSpeedMPH,WindSpeedGustMPH,Humidity,HourlyPrecipIn,Conditions,Clouds,dailyrainin,SoftwareType,DateUTC
2013-08-27 00:03:00,74.9,72.0,0.00,SSW,200,0.0,-999.0,89,-99.99,,,0.00,weatherlink.com 1.10,2013-08-27 05:03:00,
2013-08-27 00:18:00,74.8,71.0,0.00,SSW,206,0.0,-999.0,89,-99.99,,,0.00,weatherlink.com 1.10,2013-08-27 05:18:00,
2013-08-27 00:33:00,74.8,71.0,0.00,SSW,206,0.0,-999.0,89,-99.99,,,0.00,weatherlink.com 1.10,2013-08-27 05:33:00,
2013-08-27 00:48:00,74.8,71.0,0.00,SSW,210,0.0,-999.0,88,-99.99,,,0.00,weatherlink.com 1.10,2013-08-27 05:48:00,
2013-08-27 01:03:00,74.6,71.0,0.00,SSW,210,0.0,-999.0,88,-99.99,,,0.00,weatherlink.com 1.10,2013-08-27 06:03:00,
2013-08-27 01:18:00,73.8,70.0,0.00,SSW,211,0.0,-999.0,89,-99.99,,,0.00,weatherlink.com 1.10,2013-08-27 06:18:00,
2013-08-27 01:33:00,73.3,71.0,0.00,SSW,211,0.0,-999.0,91,-99.99,,,0.00,weatherlink.com 1.10,2013-08-27 06:33:00,
2013-08-27 01:48:00,72.8,70.0,0.00,SSW,211,0.0,-999.0,92,-99.99,,,0.00,weatherlink.com 1.10,2013-08-27 06:48:00,
2013-08-27 02:03:00,72.7,70.0,0.00,SSW,210,0.0,-999.0,92,-99.99,,,0.00,weatherlink.com 1.10,2013-08-27 07:03:00,
2013-08-27 02:18:00,72.7,70.0,0.00,SSW,211,0.0,-999.0,92,-99.99,,,0.00,weatherlink.com 1.10,2013-08-27 07:18:00,
2013-08-27 02:33:00,73.0,70.0,0.00,SSW,212,0.0,-999.0,91,-99.99,,,0.00,weatherlink.com 1.10,2013-08-27 07:33:00,
2013-08-27 02:48:00,72.9,70.0,0.00,SSW,212,0.0,-999.0,91,-99.99,,,0.00,weatherlink.com 1.10,2013-08-27 07:48:00,
2013-08-27 03:03:00,72.8,70.0,0.00,SSW,212,0.0,-999.0,91,-99.99,,,0.00,weatherlink.com 1.10,2013-08-27 08:03:00,
2013-08-27 03:18:00,72.8,70.0,0.00,SSW,210,0.0,-999.0,91,-99.99,,,0.00,weatherlink.com 1.10,2013-08-27 08:18:00,
2013-08-27 03:33:00,73.3,70.0,0.00,SW,215,0.0,-999.0,90,-99.99,,,0.00,weatherlink.com 1.10,2013-08-27 08:33:00,
2013-08-27 03:48:00,73.5,70.0,0.00,SSW,209,0.0,-999.0,89,-99.99,,,0.00,weatherlink.com 1.10,2013-08-27 08:48:00,
2013-08-27 04:03:00,73.2,70.0,0.00,SW,215,0.0,-999.0,89,-99.99,,,0.00,weatherlink.com 1.10,2013-08-27 09:03:00,
2013-08-27 04:18:00,72.9,70.0,0.00,SW,232,0.0,-999.0,90,-99.99,,,0.00,weatherlink.com 1.10,2013-08-27 09:18:00,
2013-08-27 04:33:00,72.6,70.0,0.00,SW,232,0.0,-999.0,90,-99.99,,,0.00,weatherlink.com 1.10,2013-08-27 09:33:00,
2013-08-27 04:48:00,72.5,70.0,0.00,SW,232,0.0,-999.0,90,-99.99,,,0.00,weatherlink.com 1.10,2013-08-27 09:48:00,
2013-08-27 05:03:00,72.3,69.0,0.00,SW,227,0.0,-999.0,90,-99.99,,,0.00,weatherlink.com 1.10,2013-08-27 10:03:00,
2013-08-27 05:18:00,72.2,69.0,0.00,SW,225,0.0,-999.0,90,-99.99,,,0.00,weatherlink.com 1.10,2013-08-27 10:18:00,
2013-08-27 05:33:00,71.9,69.0,0.00,SW,223,0.0,-999.0,91,-99.99,,,0.00,weatherlink.com 1.10,2013-08-27 10:33:00,
2013-08-27 05:48:00,71.8,69.0,0.00,SSW,203,0.0,-999.0,91,-99.99,,,0.00,weatherlink.com 1.10,2013-08-27 10:48:00,
2013-08-27 06:03:00,71.8,69.0,0.00,SSW,194,3.0,-999.0,90,-99.99,,,0.00,weatherlink.com 1.10,2013-08-27 11:03:00,
2013-08-27 06:18:00,71.9,69.0,0.00,SW,214,1.0,-999.0,90,-99.99,,,0.00,weatherlink.com 1.10,2013-08-27 11:18:00,
2013-08-27 06:33:00,71.8,69.0,0.00,SW,225,0.0,-999.0,90,-99.99,,,0.00,weatherlink.com 1.10,2013-08-27 11:33:00,
2013-08-27 06:48:00,71.8,69.0,0.00,SW,224,0.0,-999.0,90,-99.99,,,0.00,weatherlink.com 1.10,2013-08-27 11:48:00,
2013-08-27 07:03:00,72.0,69.0,0.00,SW,217,4.0,-999.0,90,-99.99,,,0.00,weatherlink.com 1.10,2013-08-27 12:03:00,
2013-08-27 07:18:00,72.5,70.0,0.00,SW,216,0.0,-999.0,90,-99.99,,,0.00,weatherlink.com 1.10,2013-08-27 12:18:00,
2013-08-27 07:33:00,73.1,70.0,0.00,South,183,2.0,-999.0,90,-99.99,,,0.00,weatherlink.com 1.10,2013-08-27 12:33:00,
2013-08-27 07:48:00,74.1,71.0,0.00,SSW,205,0.0,-999.0,89,-99.99,,,0.00,weatherlink.com 1.10,2013-08-27 12:48:00,
2013-08-27 08:03:00,75.2,71.0,0.00,WSW,243,3.0,-999.0,87,-99.99,,,0.00,weatherlink.com 1.10,2013-08-27 13:03:00,
2013-08-27 08:18:00,76.1,71.0,0.00,SW,225,0.0,-999.0,85,-99.99,,,0.00,weatherlink.com 1.10,2013-08-27 13:18:00,
2013-08-27 08:33:00,76.9,72.0,0.00,WSW,239,0.0,-999.0,84,-99.99,,,0.00,weatherlink.com 1.10,2013-08-27 13:33:00,
2013-08-27 08:48:00,77.7,72.0,0.00,SSW,206,4.0,-999.0,83,-99.99,,,0.00,weatherlink.com 1.10,2013-08-27 13:48:00,
2013-08-27 09:03:00,78.2,72.0,0.00,WSW,244,0.0,-999.0,82,-99.99,,,0.00,weatherlink.com 1.10,2013-08-27 14:03:00,
2013-08-27 09:18:00,79.3,73.0,0.00,West,281,0.0,-999.0,80,-99.99,,,0.00,weatherlink.com 1.10,2013-08-27 14:18:00,
2013-08-27 09:33:00,80.5,73.0,0.00,WSW,252,0.0,-999.0,77,-99.99,,,0.00,weatherlink.com 1.10,2013-08-27 14:33:00,
2013-08-27 09:48:00,81.7,73.0,0.00,West,261,2.0,-999.0,74,-99.99,,,0.00,weatherlink.com 1.10,2013-08-27 14:48:00,
2013-08-27 10:03:00,82.3,73.0,0.00,South,188,0.0,-999.0,74,-99.99,,,0.00,weatherlink.com 1.10,2013-08-27 15:03:00,
2013-08-27 10:18:00,82.6,73.0,0.00,WSW,240,3.0,-999.0,73,-99.99,,,0.00,weatherlink.com 1.10,2013-08-27 15:18:00,
2013-08-27 10:33:00,83.8,73.0,0.00,West,271,3.0,-999.0,70,-99.99,,,0.00,weatherlink.com 1.10,2013-08-27 15:33:00,
2013-08-27 10:48:00,84.3,73.0,0.00,SW,234,0.0,-999.0,69,-99.99,,,0.00,weatherlink.com 1.10,2013-08-27 15:48:00,
2013-08-27 11:03:00,84.2,73.0,0.00,SSW,206,0.0,-999.0,70,-99.99,,,0.00,weatherlink.com 1.10,2013-08-27 16:03:00,
2013-08-27 11:18:00,85.1,74.0,0.00,SSW,205,0.0,-999.0,69,-99.99,,,0.00,weatherlink.com 1.10,2013-08-27 16:18:00,
2013-08-27 11:33:00,86.3,74.0,0.00,SW,227,5.0,-999.0,66,-99.99,,,0.00,weatherlink.com 1.10,2013-08-27 16:33:00,
2013-08-27 11:48:00,87.5,74.0,0.00,WSW,238,3.0,-999.0,64,-99.99,,,0.00,weatherlink.com 1.10,2013-08-27 16:48:00,
2013-08-27 12:03:00,88.4,75.0,0.00,West,259,0.0,-999.0,64,-99.99,,,0.00,weatherlink.com 1.10,2013-08-27 17:03:00,
2013-08-27 12:18:00,88.6,74.0,0.00,SW,225,3.0,-999.0,63,-99.99,,,0.00,weatherlink.com 1.10,2013-08-27 17:18:00,
2013-08-27 12:33:00,89.3,75.0,0.00,WSW,254,3.0,-999.0,62,-99.99,,,0.00,weatherlink.com 1.10,2013-08-27 17:33:00,
2013-08-27 12:48:00,89.3,75.0,0.00,SW,230,12.0,-999.0,62,-99.99,,,0.00,weatherlink.com 1.10,2013-08-27 17:48:00,
2013-08-27 13:03:00,90.1,74.0,0.00,SSW,211,9.0,-999.0,60,-99.99,,,0.00,weatherlink.com 1.10,2013-08-27 18:03:00,
2013-08-27 13:18:00,89.9,75.0,0.00,SW,234,10.0,-999.0,61,-99.99,,,0.00,weatherlink.com 1.10,2013-08-27 18:18:00,
2013-08-27 13:33:00,90.3,75.0,0.00,SW,234,4.0,-999.0,60,-99.99,,,0.00,weatherlink.com 1.10,2013-08-27 18:33:00,
2013-08-27 13:48:00,90.1,75.0,0.00,WSW,250,2.0,-999.0,61,-99.99,,,0.00,weatherlink.com 1.10,2013-08-27 18:48:00,
2013-08-27 14:03:00,90.7,75.0,0.00,WSW,249,3.0,-999.0,60,-99.99,,,0.00,weatherlink.com 1.10,2013-08-27 19:03:00,
2013-08-27 14:18:00,90.6,75.0,0.00,SW,236,0.0,-999.0,61,-99.99,,,0.00,weatherlink.com 1.10,2013-08-27 19:18:00,
2013-08-27 14:33:00,90.6,75.0,0.00,West,277,0.0,-999.0,61,-99.99,,,0.00,weatherlink.com 1.10,2013-08-27 19:33:00,
2013-08-27 14:48:00,91.1,76.0,0.00,SSE,168,0.0,-999.0,61,-99.99,,,0.00,weatherlink.com 1.10,2013-08-27 19:48:00,
2013-08-27 15:03:00,90.5,75.0,0.00,SW,236,4.0,-999.0,61,-99.99,,,0.00,weatherlink.com 1.10,2013-08-27 20:03:00,
2013-08-27 15:18:00,91.0,75.0,0.00,SW,217,9.0,-999.0,60,-99.99,,,0.00,weatherlink.com 1.10,2013-08-27 20:18:00,
2013-08-27 15:33:00,91.1,76.0,0.00,SW,217,5.0,-999.0,61,-99.99,,,0.00,weatherlink.com 1.10,2013-08-27 20:33:00,
2013-08-27 15:48:00,91.2,76.0,0.00,WSW,256,2.0,-999.0,61,-99.99,,,0.00,weatherlink.com 1.10,2013-08-27 20:48:00,
2013-08-27 16:03:00,91.1,76.0,0.00,WSW,250,1.0,-999.0,61,-99.99,,,0.00,weatherlink.com 1.10,2013-08-27 21:03:00,
2013-08-27 16:48:00,91.5,76.0,0.00,SW,232,6.0,-999.0,61,-99.99,,,0.00,weatherlink.com 1.10,2013-08-27 21:48:00,
2013-08-27 17:03:00,91.1,76.0,0.00,WSW,250,4.0,-999.0,62,-99.99,,,0.00,weatherlink.com 1.10,2013-08-27 22:03:00,
2013-08-27 17:18:00,90.6,75.0,0.00,WSW,244,4.0,-999.0,61,-99.99,,,0.00,weatherlink.com 1.10,2013-08-27 22:18:00,
2013-08-27 17:33:00,90.7,75.0,0.00,WSW,252,2.0,-999.0,61,-99.99,,,0.00,weatherlink.com 1.10,2013-08-27 22:33:00,
2013-08-27 17:48:00,90.7,76.0,0.00,WSW,241,0.0,-999.0,62,-99.99,,,0.00,weatherlink.com 1.10,2013-08-27 22:48:00,
2013-08-27 18:03:00,90.4,76.0,0.00,West,259,4.0,-999.0,62,-99.99,,,0.00,weatherlink.com 1.10,2013-08-27 23:03:00,
2013-08-27 18:18:00,90.0,76.0,0.00,West,261,2.0,-999.0,63,-99.99,,,0.00,weatherlink.com 1.10,2013-08-27 23:18:00,
2013-08-27 18:33:00,89.6,75.0,0.00,WSW,258,2.0,-999.0,63,-99.99,,,0.00,weatherlink.com 1.10,2013-08-27 23:33:00,
2013-08-27 18:49:00,88.8,76.0,0.00,West,273,4.0,-999.0,65,-99.99,,,0.00,weatherlink.com 1.10,2013-08-27 23:49:00,
2013-08-27 19:03:00,87.8,76.0,0.00,West,277,0.0,-999.0,67,-99.99,,,0.00,weatherlink.com 1.10,2013-08-28 00:03:00,
2013-08-27 19:18:00,87.1,75.0,0.00,West,281,0.0,-999.0,68,-99.99,,,0.00,weatherlink.com 1.10,2013-08-28 00:18:00,
2013-08-27 19:33:00,86.3,75.0,0.00,WSW,245,0.0,-999.0,70,-99.99,,,0.00,weatherlink.com 1.10,2013-08-28 00:33:00,
2013-08-27 19:48:00,85.6,75.0,0.00,WSW,245,0.0,-999.0,71,-99.99,,,0.00,weatherlink.com 1.10,2013-08-28 00:48:00,
2013-08-27 20:03:00,84.7,76.0,0.00,WSW,245,0.0,-999.0,74,-99.99,,,0.00,weatherlink.com 1.10,2013-08-28 01:03:00,
2013-08-27 20:18:00,83.7,75.0,0.00,WSW,246,0.0,-999.0,75,-99.99,,,0.00,weatherlink.com 1.10,2013-08-28 01:18:00,
2013-08-27 20:33:00,83.0,75.0,0.00,WSW,246,0.0,-999.0,77,-99.99,,,0.00,weatherlink.com 1.10,2013-08-28 01:33:00,
2013-08-27 20:48:00,82.3,75.0,0.00,WSW,246,0.0,-999.0,78,-99.99,,,0.00,weatherlink.com 1.10,2013-08-28 01:48:00,
2013-08-27 21:03:00,82.0,75.0,0.00,WSW,245,0.0,-999.0,79,-99.99,,,0.00,weatherlink.com 1.10,2013-08-28 02:03:00,
2013-08-27 21:18:00,81.5,75.0,0.00,WSW,246,0.0,-999.0,80,-99.99,,,0.00,weatherlink.com 1.10,2013-08-28 02:18:00,
2013-08-27 21:48:00,80.0,75.0,0.00,WSW,246,0.0,-999.0,84,-99.99,,,0.00,weatherlink.com 1.10,2013-08-28 02:48:00,
2013-08-27 22:03:00,79.7,75.0,0.00,WSW,246,0.0,-999.0,84,-99.99,,,0.00,weatherlink.com 1.10,2013-08-28 03:03:00,
2013-08-27 22:18:00,80.0,75.0,0.00,WSW,246,0.0,-999.0,84,-99.99,,,0.00,weatherlink.com 1.10,2013-08-28 03:18:00,
2013-08-27 22:33:00,79.9,75.0,0.00,WSW,245,0.0,-999.0,84,-99.99,,,0.00,weatherlink.com 1.10,2013-08-28 03:33:00,
2013-08-27 22:48:00,79.3,75.0,0.00,WSW,245,0.0,-999.0,85,-99.99,,,0.00,weatherlink.com 1.10,2013-08-28 03:48:00,
2013-08-27 23:03:00,78.3,74.0,0.00,WSW,246,0.0,-999.0,87,-99.99,,,0.00,weatherlink.com 1.10,2013-08-28 04:03:00,
2013-08-27 23:18:00,77.6,74.0,0.00,WSW,246,0.0,-999.0,89,-99.99,,,0.00,weatherlink.com 1.10,2013-08-28 04:18:00,
2013-08-27 23:33:00,77.1,74.0,0.00,WSW,246,0.0,-999.0,90,-99.99,,,0.00,weatherlink.com 1.10,2013-08-28 04:33:00,
2013-08-27 23:48:00,78.2,74.0,0.00,WSW,245,0.0,-999.0,88,-99.99,,,0.00,weatherlink.com 1.10,2013-08-28 04:48:00,